Location: Góry Miechowskie
(50.3599°N, 20.1803°E)
Time: 20:50:30
(UTC+00:00)

Courier 1B - Pass Details

Date: 17 September 2024
Orbit: 962 x 1208 km, 28.3° (Epoch: 13 October)

Event Time Altitude Azimuth Distance (km) Brightness Sun altitude
Rises 13:17:57 0° 224° (SW) 3,882 11.8 30.4°
Reaches altitude 10° 13:22:51 10° 195° (SSW) 2,990 11.0 29.8°
Maximum altitude 13:25:20 12° 175° (S) 2,877 10.5 29.5°
Drops below altitude 10° 13:27:52 10° 155° (SSE) 3,048 10.3 29.2°
Sets 13:33:01 0° 127° (SE) 4,059 10.6 28.5°
